Weather Models
Both GFS & NAM
00z 06z 12z 18z
24hr Precip
00z 06z 12z 18z
36hr Simulated radar
00z 06z 12z 18z
SKEWT Soundings
00z 12z
Current Conditions (Updated 1:35pm on 12/13/18)
Temperature
 49°
1.56
49°  
37°  
0
10
20
30
40
50
60
70
80
90
100
Dew Point
33°
34°  
21°  
-20
-10
0
10
20
30
40
50
60
70
80
Wind Chill
45°
49°  
30°  
-20
-10
0
10
20
30
40
50
60
70
80
Wind Chill
Humidity
54%
61% 
51% 
0
10
20
30
40
50
60
70
80
90
100
Barometer
30.37
   Steady
30.40  
30.25  
28.00
28.30
28.60
28.90
29.20
29.50
29.80
30.10
30.40
30.70
31.00
Temperature
Dew Point
Humidity
Pressure
Wind
9mph
SSE
Daily Rain
.00
.05
.10
.15
.20
.25
.30
.35
.40
.45
.50
Rain Today
 0.00" 
Month Rain
0.00
0.20
0.40
0.60
0.80
1.00
1.20
1.40
1.60
1.80
2.00
Month Rain
 0.62" 
Year Rain
0.00
7.50
15.00
22.50
30.00
37.50
45.00
52.50
60.00
67.50
75.00
Year Rain
 57.49" 
Sun & Moon Data
Sunrise 7:13am
Sunset 4:35pm
Moonrise 11:39am
Moonset 10:29pm
Moon % 26%
Other Rain Data
Past Hour 0.00 Past 24 Hours 0.00
Past 3 Hours 0.00 Past 7 Days 0.00
Past 6 Hours 0.00
Cloud Height
3969


Current Front Map
Current Satellite map
7 Day Forecast
NWS Forecast for Philadelphia PA
National Weather Service Forecast for: Philadelphia PA
Issued by: National Weather Service Philadelphia, PA
Updated: 12:40 pm EST Dec 13, 2018

Philadelphia
 
This
Afternoon
This Afternoon: Cloudy early, then becoming mostly sunny, with a high near 48. East wind around 5 mph.
Mostly Sunny

Tonight

Tonight: Mostly cloudy, with a low around 35. Light northeast wind.
Mostly Cloudy

Friday

Friday: A chance of rain after 2pm.  Mostly cloudy, with a high near 51. Southeast wind 3 to 5 mph.  Chance of precipitation is 30%. New precipitation amounts of less than a tenth of an inch possible.
Partly Sunny
then Chance
Rain
Friday
Night
Friday Night: Rain, mainly after 8pm.  Low around 44. East wind 3 to 6 mph.  Chance of precipitation is 90%. New precipitation amounts between a half and three quarters of an inch possible.
Rain

Saturday

Saturday: Rain.  High near 52. Northeast wind 6 to 8 mph.  Chance of precipitation is 90%. New precipitation amounts between a half and three quarters of an inch possible.
Rain

Saturday
Night
Saturday Night: Rain likely before 8pm, then a chance of showers between 8pm and 2am, then a chance of rain after 2am.  Mostly cloudy, with a low around 40. Chance of precipitation is 60%. New precipitation amounts between a tenth and quarter of an inch possible.
Rain Likely

Sunday

Sunday: A chance of rain.  Mostly cloudy, with a high near 46. Chance of precipitation is 50%.
Chance Rain

Sunday
Night
Sunday Night: A chance of rain before 8pm, then a chance of showers between 8pm and 2am.  Mostly cloudy, with a low around 34. Chance of precipitation is 50%.
Chance Rain

Monday

Monday: Partly sunny, with a high near 47.
Partly Sunny

Hi 48 °F Lo 35 °F Hi 51 °F Lo 44 °F Hi 52 °F Lo 40 °F Hi 46 °F Lo 34 °F Hi 47 °F

 

This Afternoon
 
Cloudy early, then becoming mostly sunny, with a high near 48. East wind around 5 mph.
Tonight
 
Mostly cloudy, with a low around 35. Light northeast wind.
Friday
 
A chance of rain after 2pm. Mostly cloudy, with a high near 51. Southeast wind 3 to 5 mph. Chance of precipitation is 30%. New precipitation amounts of less than a tenth of an inch possible.
Friday Night
 
Rain, mainly after 8pm. Low around 44. East wind 3 to 6 mph. Chance of precipitation is 90%. New precipitation amounts between a half and three quarters of an inch possible.
Saturday
 
Rain. High near 52. Northeast wind 6 to 8 mph. Chance of precipitation is 90%. New precipitation amounts between a half and three quarters of an inch possible.
Saturday Night
 
Rain likely before 8pm, then a chance of showers between 8pm and 2am, then a chance of rain after 2am. Mostly cloudy, with a low around 40. Chance of precipitation is 60%. New precipitation amounts between a tenth and quarter of an inch possible.
Sunday
 
A chance of rain. Mostly cloudy, with a high near 46. Chance of precipitation is 50%.
Sunday Night
 
A chance of rain before 8pm, then a chance of showers between 8pm and 2am. Mostly cloudy, with a low around 34. Chance of precipitation is 50%.
Monday
 
Partly sunny, with a high near 47.
Monday Night
 
Partly cloudy, with a low around 32.
Tuesday
 
Sunny, with a high near 41.
Tuesday Night
 
Mostly clear, with a low around 27.
Wednesday
 
Sunny, with a high near 43.

 

Forecast from NOAA-NWS for Philadelphia PA.

Area Weather Current Conditions
Nearby METAR Reports

KPHL - Philadelphia, Pennsylvania
Updated: Thu, 13-Dec-2018 12:54pm EST
Mostly Cloudy
Mostly Cloudy
 Wind from SE
Wind: SE 9 mph , 15 km/h
Temperature: 48°F , 9°C
Wind Chill: 44°F , 7°C
Dew Point: 36°F , 2°C
Humidity: 62%
Barometer: 30.34 inHg , 1027.4 hPa
Clouds: Mostly Cloudy
Visibility: 10 miles , 16 km
Cloud details: Mostly Cloudy 3100 ft
2018/12/13 17:54 KPHL 131754Z 13008KT 10SM BKN031 09/02 A3034 RMK AO2 SLP273 T00940017 10094 20033 55009
KMPO - Mt. Pocono, Pennsylvania
Updated: Thu, 13-Dec-2018 12:53pm EST
Overcast
Overcast
 Wind from E
Wind: E 7 mph , 11 km/h
Temperature: 27°F , -3°C
Wind Chill: 19°F , -7°C
Dew Point: 27°F , -3°C
Humidity: 100%
Barometer: 30.29 inHg , 1025.7 hPa
Clouds: Overcast
Visibility: 9 miles , 14 km
Cloud details: Overcast 300 ft
2018/12/13 17:53 KMPO 131753Z AUTO 08006KT 9SM OVC003 M03/M03 A3029 RMK AO2 SLP283 60000 T10281033 11028 21044 55002 $
 
KACY - Atlantic City, New Jersey
Updated: Thu, 13-Dec-2018 12:54pm EST
Overcast
Overcast
 Wind from ESE
Wind: ESE 10 mph , 17 km/h
Temperature: 48°F , 9°C
Wind Chill: 44°F , 7°C
Dew Point: 36°F , 2°C
Humidity: 62%
Barometer: 30.34 inHg , 1027.4 hPa
Clouds: Overcast
Visibility: 10 miles , 16 km
Cloud details: Overcast 6000 ft
2018/12/13 17:54 KACY 131754Z 12009KT 10SM OVC060 09/02 A3034 RMK AO2 SLP275 T00890022 10089 20028 58006
KMIV - Millville, New Jersey
Updated: Thu, 13-Dec-2018 12:54pm EST
Overcast
Overcast
 Wind from SE
Wind: SE 12 mph , 19 km/h
Temperature: 48°F , 9°C
Wind Chill: 43°F , 6°C
Dew Point: 36°F , 2°C
Humidity: 62%
Barometer: 30.33 inHg , 1027.1 hPa
Clouds: Overcast
Visibility: 10 miles , 16 km
Cloud details: Overcast 9000 ft
2018/12/13 17:54 KMIV 131754Z AUTO 14010KT 10SM OVC090 09/02 A3033 RMK AO2 SLP270 T00890022 10094 20022 58005
 
KWWD - Wildwood, New Jersey
Updated: Thu, 13-Dec-2018 11:55am EST
NOT Current
Overcast
Overcast
 Wind from ESE
Wind: ESE 8 mph , 13 km/h
Temperature: 48°F , 9°C
Wind Chill: 44°F , 7°C
Dew Point: 37°F , 3°C
Humidity: 66%
Barometer: 30.34 inHg , 1027.4 hPa
Clouds: Overcast
Visibility: 10 miles , 16 km
Cloud details: Few Clouds 3400 ft
Overcast 5500 ft
2018/12/13 16:55 KWWD 131655Z AUTO 12007KT 10SM FEW034 OVC055 09/03 A3034 RMK AO2 RAB34E48 SLP277 P0000 T00890033
KDOV - Dover Afb, Delaware
Updated: Thu, 13-Dec-2018 12:56pm EST
Overcast
Overcast
 Wind from ESE
Wind: ESE 8 mph , 13 km/h
Temperature: 48°F , 9°C
Wind Chill: 44°F , 7°C
Dew Point: 39°F , 4°C
Humidity: 71%
Barometer: 30.30 inHg , 1026.1 hPa
Clouds: Overcast
Visibility: 10 miles , 16 km
Cloud details: Overcast 8000 ft
2018/12/13 17:56 KDOV 131756Z AUTO 11007KT 10SM OVC080 09/04 A3030 RMK AO2 SLP264 T00920036 10092 20046 58007 $
Severe Weather Map